Weather History for Emporia, KS

Change the Weather History Date:

Wednesday, February 22, 2012

  Actual Average Record
Temperature  
Mean Temperature 52 °F 37 °F  
Max Temperature 68 °F 48 °F 68 °F (2012)
Min Temperature 36 °F 26 °F 10 °F (2013)
Degree Days  
Heating Degree Days 13 28  
Month to date heating degree days 604 675  
Since 1 July heating degree days 3180 3663  
Cooling Degree Days 0 0  
Month to date cooling degree days 0 0  
Year to date cooling degree days 0 0  
Growing Degree Days 2 (Base 50)    
Moisture  
Dew Point 32 °F    
Average Humidity 50    
Maximum Humidity 70    
Minimum Humidity 29    
Precipitation  
Precipitation 0.00 in 0.05 in 0.04 in (1999)
Month to date precipitation 1.89 0.97  
Year to date precipitation 1.89 1.60  
Sea Level Pressure  
Sea Level Pressure 29.57 in    
Wind  
Wind Speed 11 mph (WSW)    
Max Wind Speed 24 mph    
Max Gust Speed 32 mph    
Visibility 10 miles    
Events      
T = Trace of Precipitation, MM = Missing Value Source: NWS Daily Summary

Daily Weather History Graph

Daily Weather History Graph

Search for Another Location

Airport:

Trip Planner

Search our weather history database for the weather conditions in past years. The results will help you decide how hot, cold, wet, or windy it might be!

Date:

Astronomy

Feb. 22, 2012 Rise Set
Actual Time 7:06 AM CST 6:10 PM CST
Civil Twilight 6:40 AM CST 6:36 PM CST
Nautical Twilight 6:09 AM CST 7:07 PM CST
Astronomical Twilight 5:38 AM CST 7:38 PM CST
Moon 7:07 AM CST (2/22) 7:16 PM CST (2/22)
Length of Visible Light 11h 56m
Length of Day
11h 03m
New Moon, 1% of the Moon is Illuminated
Feb 22
New Moon
Feb 29
First Quarter
Mar 8
Full
Mar 14
Last Quarter
Mar 22
New

Hourly Weather History & Observations

Time (CST) Temp. Windchill Dew Point Humidity Pressure Visibility Wind Dir Wind Speed Gust Speed Precip Events Conditions
12:53 AM 37.9 °F 30.5 °F 28.0 °F 68% 29.75 in 10.0 mi SSW 11.5 mph - N/A   Clear
1:53 AM 39.9 °F 32.9 °F 28.0 °F 63% 29.73 in 10.0 mi SSW 11.5 mph - N/A   Clear
2:53 AM 39.0 °F 30.6 °F 28.0 °F 65% 29.70 in 10.0 mi SSW 15.0 mph - N/A   Clear
3:53 AM 41.0 °F 33.1 °F 28.0 °F 60% 29.68 in 10.0 mi SW 15.0 mph - N/A   Clear
4:53 AM 42.1 °F 33.3 °F 28.9 °F 60% 29.66 in 10.0 mi SSW 19.6 mph - N/A   Clear
5:53 AM 43.0 °F 36.0 °F 28.0 °F 56% 29.66 in 10.0 mi SW 13.8 mph - N/A   Clear
6:53 AM 42.1 °F 36.6 °F 27.0 °F 55% 29.66 in 10.0 mi WSW 9.2 mph - N/A   Clear
7:53 AM 44.1 °F 40.1 °F 27.0 °F 51% 29.66 in 10.0 mi West 6.9 mph - N/A   Clear
8:53 AM 44.1 °F 39.5 °F 28.9 °F 55% 29.67 in 10.0 mi West 8.1 mph - N/A   Clear
9:53 AM 50.0 °F - 28.0 °F 43% 29.62 in 10.0 mi West 10.4 mph 17.3 mph N/A   Clear
10:53 AM 55.0 °F - 28.0 °F 35% 29.62 in 10.0 mi West 10.4 mph 16.1 mph N/A   Clear
11:53 AM 57.0 °F - 30.9 °F 37% 29.61 in 10.0 mi WNW 9.2 mph - N/A   Clear
12:53 PM 60.1 °F - 32.0 °F 35% 29.58 in 10.0 mi WNW 10.4 mph 19.6 mph N/A   Clear
1:53 PM 64.0 °F - 33.1 °F 31% 29.54 in 10.0 mi West 16.1 mph 21.9 mph N/A   Clear
2:53 PM 66.0 °F - 34.0 °F 30% 29.51 in 10.0 mi West 18.4 mph 24.2 mph N/A   Clear
3:53 PM 66.9 °F - 34.0 °F 30% 29.48 in 10.0 mi WNW 11.5 mph - N/A   Clear
4:53 PM 66.9 °F - 35.1 °F 31% 29.48 in 10.0 mi WNW 19.6 mph 32.2 mph N/A   Clear
5:53 PM 62.1 °F - 36.0 °F 38% 29.48 in 10.0 mi West 8.1 mph - N/A   Clear
6:53 PM 55.0 °F - 36.0 °F 49% 29.48 in 10.0 mi WSW 4.6 mph - N/A   Clear
7:53 PM 55.0 °F - 37.0 °F 51% 29.46 in 10.0 mi West 4.6 mph - N/A   Clear
8:53 PM 51.1 °F - 39.0 °F 63% 29.45 in 10.0 mi SW 5.8 mph - N/A   Clear
9:53 PM 53.1 °F - 39.0 °F 59% 29.44 in 10.0 mi SSW 10.4 mph - N/A   Partly Cloudy
10:53 PM 50.0 °F - 39.0 °F 66% 29.40 in 10.0 mi SSE 5.8 mph - N/A   Clear
11:53 PM 50.0 °F - 39.9 °F 68% 29.38 in 10.0 mi NNE 5.8 mph - N/A   Clear